Regional Weather Roundup
Issued by NWS

Home | Current Version | Previous Version | Graphics & Text | Print | Product List | Glossary On
Versions: 1 2 3 4 5 6 7 8 9 10 11 12 13 14 15 16 17 18 19 20 21 22 23 24 25 26 27 28 29 30 31 32 33 34 35 36 37 38 39 40 41 42 43 44 45 46 47 48 49 50
000
ASUS44 KMEG 191700
RWRTN
TENNESSEE HOURLY STATE WEATHER ROUNDUP
NATIONAL WEATHER SERVICE MEMPHIS TN
1200 PM CDT FRI SEP 19 2014

TNZ002-004-019-021-049-052-054-088>092-191800-
WEST TENNESSEE

CITY           SKY/WX    TMP DP  RH WIND       PRES   REMARKS
MEMPHIS INTL   MOSUNNY   80  65  59 VRB6      30.05S
NWS MEMPHIS      N/A     80 N/A N/A MISG        N/A
JACKSON        SUNNY     79  63  57 SE5       30.06S
DYERSBURG      SUNNY     79  57  47 E5        30.07S
UNION CITY     SUNNY     77  61  57 E7        30.06S
PARIS          SUNNY     75  61  60 VRB5      30.08S
SAVANNAH       SUNNY     81  68  65 VRB5      30.05S
$$

TNZ008-025-027-028-033-062-065-066-191800-
NORTH MIDDLE TENNESSEE

CITY           SKY/WX    TMP DP  RH WIND       PRES   REMARKS
NASHVILLE      MOSUNNY   80  61  52 NE5       30.08S
CLARKSVILLE    SUNNY     78  58  49 VRB5      30.08F
COOKEVILLE     MOSUNNY   82  63  51 SW6       30.09S
CROSSVILLE     SUNNY     76  57  51 VRB7      30.13F
$$

TNZ061-075-076-078-094-096-097-191800-
SOUTH MIDDLE TENNESSEE

CITY           SKY/WX    TMP DP  RH WIND       PRES   REMARKS
WINCHESTER     SUNNY     81  63  54 SE8       30.08F
SHELBYVILLE    PTSUNNY   82  64  54 CALM      30.08S
$$

TNZ017-018-042-046-047-191800-
NORTHEAST TENNESSEE

CITY           SKY/WX    TMP DP  RH WIND       PRES   REMARKS
TRI CITIES     MOSUNNY   78  57  48 E6        30.14F
ELIZABETHTON   MOSUNNY   75  57  53 E13       30.15S
$$

TNZ012-013-036-069-073-074-191800-
CENTRAL EAST TENNESSEE

CITY           SKY/WX    TMP DP  RH WIND       PRES   REMARKS
KNOXVILLE      MOSUNNY   78  60  53 W3        30.10S
OAK RIDGE      SUNNY     77  60  55 CALM      30.12F
GATLINBURG     SUNNY     81  63  54 N5        30.09F
$$

TNZ083-085-099-191800-
SOUTHEAST TENNESSEE

CITY           SKY/WX    TMP DP  RH WIND       PRES   REMARKS
CHATTANOOGA    MOSUNNY   78  62  57 S3        30.09F
$$

SKY/WX REPORTED AS FAIR MEANS FEW OR NO CLOUDS BELOW
12 THOUSAND FEET.



USA.gov is the U.S. government's official web portal to all federal, state and local government web resources and services.